Tracking 26325 objects as of 28-Nov-2022
HD Live streaming from Space Station
objects crossing your sky now

SJ 16-02 DEB

Track SJ 16-02 DEB now!
10-day predictions


NORAD ID: 43428
Int'l Code: 2016-043C
Perigee: 606.6 km
Apogee: 1,006.8 km
Inclination: 75.0 °
Period: 100.9 minutes
Semi major axis: 7177 km
RCS: Unknown
Launch date: June 29, 2016
Source: People's Republic of China (PRC)
Launch site: Jiuquan Satellite Launch Center, China (JSC)

Note: This is SATELLITE DEBRIS
aabbcc
Your satellite tracking list
Your tracking list is empty




NASA's NSSDC Master Catalog

Two Line Element Set (TLE):
1 43428U 16043C   22331.70623315  .00001248  00000-0  33951-3 0  9992
2 43428  74.9681 227.4509 0278802  82.8633 280.4129 14.27665682333039
Source of the keplerian elements: AFSPC